Location: Kershaw
(34.5481°N, 80.5823°W)
Time: 14:42:02
(UTC+00:00)

Transit 4A - Pass Details

Date: 03 October 2022
Orbit: 871 x 972 km, 66.8° (Epoch: 29 November)

Event Time Altitude Azimuth Distance (km) Brightness Sun altitude
Rises 12:29:53 0° 334° (NNW) 3,478 10.5 13.6°
Reaches altitude 10° 12:32:23 10° 335° (NNW) 2,530 9.9 14.1°
Maximum altitude 12:38:13 84° 64° (ENE) 880 8.2 15.3°
Drops below altitude 10° 12:44:02 10° 152° (SSE) 2,514 11.0 16.4°
Sets 12:46:30 0° 153° (SSE) 3,455 11.6 16.9°
